This is the latest recevied weather packets stored in our database for station/object DN9EM-1. If no packets are shown the sender has not sent any weather packets the latest 10 day(s).
| Time | Temp. | Humidity | Pressure | Rain* | Wind** | Luminosity | Snow |
|---|---|---|---|---|---|---|---|
| 1777320657 | 8.89° C | 58% | 1026.7 hPa | 0 mm | - | - | - |
| 1777320054 | 8.89° C | 59% | 1026.6 hPa | 0 mm | - | - | - |
| 1777319452 | 8.89° C | 59% | 1026.4 hPa | 0 mm | - | - | - |
| 1777318849 | 9.44° C | 58% | 1026.3 hPa | 0 mm | - | - | - |
| 1777318246 | 9.44° C | 58% | 1026.3 hPa | 0 mm | - | - | - |
| 1777317644 | 9.44° C | 57% | 1026.3 hPa | 0 mm | - | - | - |
| 1777317041 | 10° C | 55% | 1026.2 hPa | 0 mm | - | - | - |
| 1777316439 | 10° C | 54% | 1026.1 hPa | 0 mm | - | - | - |
| 1777315836 | 10° C | 54% | 1025.9 hPa | 0 mm | - | - | - |
| 1777315234 | 10.56° C | 54% | 1025.7 hPa | 0 mm | - | - | - |
| 1777314631 | 10.56° C | 55% | 1025.7 hPa | 0 mm | - | - | - |
| 1777314029 | 10.56° C | 56% | 1025.6 hPa | 0 mm | - | - | - |
| 1777313426 | 10.56° C | 57% | 1025.6 hPa | 0 mm | - | - | - |
| 1777312823 | 11.11° C | 57% | 1025.5 hPa | 0 mm | - | - | - |
| 1777312221 | 11.11° C | 58% | 1025.6 hPa | 0 mm | - | - | - |
| 1777311618 | 11.11° C | 58% | 1025.4 hPa | 0 mm | - | - | - |
| 1777311016 | 11.67° C | 58% | 1025.4 hPa | 0 mm | - | - | - |
| 1777310473 | 11.67° C | 58% | 1025.4 hPa | 0 mm | - | - | - |
| 1777309871 | 11.67° C | 58% | 1025.3 hPa | 0 mm | - | - | - |
| 1777309268 | 12.22° C | 57% | 1025.4 hPa | 0 mm | - | - | - |
| 1777308666 | 12.78° C | 55% | 1025.4 hPa | 0 mm | - | - | - |
| 1777308063 | 12.22° C | 55% | 1025.3 hPa | 0 mm | - | - | - |
| 1777307460 | 12.78° C | 55% | 1025.4 hPa | 0 mm | - | - | - |
| 1777306858 | 12.78° C | 54% | 1025.4 hPa | 0 mm | - | - | - |
| 1777306255 | 13.33° C | 54% | 1025.4 hPa | 0 mm | - | - | - |
* Rain latest hour (hover to see other rain measurements)
** Current wind speed in m/s (hover to see current wind gust speed)